TimeCDT,TemperatureF,Dew PointF,Humidity,Sea Level PressureIn,VisibilityMPH,Wind Direction,Wind SpeedMPH,Gust SpeedMPH,PrecipitationIn,Events,Conditions,WindDirDegrees,DateUTC
12:52 AM,57.0,54.0,89,30.14,7.0,Calm,Calm,-,N/A,,Clear,0,2013-07-10 05:52:00
1:52 AM,54.0,52.0,93,30.14,6.0,Calm,Calm,-,N/A,,Clear,0,2013-07-10 06:52:00
2:52 AM,55.0,53.1,93,30.13,7.0,SW,3.5,-,N/A,,Clear,230,2013-07-10 07:52:00
3:52 AM,52.0,50.0,93,30.13,6.0,Calm,Calm,-,N/A,,Clear,0,2013-07-10 08:52:00
4:52 AM,52.0,50.0,93,30.12,5.0,SW,4.6,-,N/A,,Clear,220,2013-07-10 09:52:00
5:52 AM,53.1,51.1,93,30.12,4.0,SSW,3.5,-,N/A,,Clear,210,2013-07-10 10:52:00
6:03 AM,53.6,51.8,94,30.12,2.5,Calm,Calm,-,N/A,,Clear,0,2013-07-10 11:03:00
6:52 AM,53.1,52.0,96,30.11,3.0,Calm,Calm,-,N/A,,Clear,0,2013-07-10 11:52:00
7:15 AM,55.4,53.6,94,30.11,2.5,SW,3.5,-,N/A,,Clear,220,2013-07-10 12:15:00
7:22 AM,55.4,53.6,94,30.11,3.0,SW,3.5,-,N/A,,Clear,220,2013-07-10 12:22:00
7:52 AM,57.9,55.0,90,30.11,4.0,SW,3.5,-,N/A,,Clear,220,2013-07-10 12:52:00
8:52 AM,62.1,55.9,80,30.10,7.0,South,5.8,-,N/A,,Clear,190,2013-07-10 13:52:00
9:52 AM,66.9,57.9,73,30.09,9.0,SW,5.8,-,N/A,,Clear,220,2013-07-10 14:52:00
10:52 AM,71.1,59.0,66,30.07,10.0,Variable,4.6,-,N/A,,Clear,0,2013-07-10 15:52:00
11:52 AM,71.1,52.0,51,30.06,10.0,SSE,4.6,-,N/A,,Clear,160,2013-07-10 16:52:00
12:52 PM,77.0,52.0,42,30.05,10.0,Calm,Calm,-,N/A,,Clear,0,2013-07-10 17:52:00
1:52 PM,81.0,54.0,39,30.03,10.0,ENE,4.6,-,N/A,,Clear,70,2013-07-10 18:52:00
2:52 PM,80.1,53.1,39,30.01,10.0,Variable,6.9,-,N/A,,Clear,0,2013-07-10 19:52:00
3:52 PM,81.0,51.1,35,30.00,10.0,South,6.9,-,N/A,,Clear,180,2013-07-10 20:52:00
4:52 PM,81.0,51.1,35,29.99,10.0,Calm,Calm,-,N/A,,Clear,0,2013-07-10 21:52:00
5:52 PM,81.0,46.9,30,29.98,10.0,Calm,Calm,-,N/A,,Clear,0,2013-07-10 22:52:00
6:52 PM,82.9,48.0,29,29.96,10.0,Calm,Calm,-,N/A,,Clear,0,2013-07-10 23:52:00
7:52 PM,81.0,48.0,31,29.95,10.0,East,3.5,-,N/A,,Clear,100,2013-07-11 00:52:00
8:52 PM,78.1,57.0,48,29.94,10.0,East,5.8,-,N/A,,Clear,100,2013-07-11 01:52:00
9:52 PM,72.0,61.0,68,29.93,10.0,East,8.1,-,N/A,,Clear,90,2013-07-11 02:52:00
10:52 PM,70.0,60.1,71,29.92,10.0,ESE,10.4,-,N/A,,Clear,110,2013-07-11 03:52:00
11:52 PM,69.1,59.0,70,29.92,10.0,ESE,8.1,-,N/A,,Clear,120,2013-07-11 04:52:00